EN

Hourly Weather Orzega

Today, 16 May, Sunday

Time Temperature Precipitation Wind Pressure Humidity
00:00 +11°C° 0.4 mm 3 mps 740 mmHg 92%
01:00 +11°C° 0.4 mm 3 mps 740 mmHg 94%
02:00 +11°C° 0.4 mm 3 mps 740 mmHg 96%
03:00 +11°C° 0.1 mm 3 mps 740 mmHg 95%
04:00 +11°C° 0.1 mm 3 mps 740 mmHg 95%
05:00 +11°C° 0.1 mm 3 mps 740 mmHg 95%
06:00 +11°C° 0.2 mm 3 mps 740 mmHg 95%
07:00 +11°C° 0.2 mm 3 mps 740 mmHg 95%
08:00 +11°C° 0.2 mm 3 mps 741 mmHg 95%
09:00 +11°C° 0.3 mm 3 mps 741 mmHg 94%
10:00 +11°C° 0.3 mm 3 mps 741 mmHg 93%
11:00 +11°C° 0.3 mm 3 mps 742 mmHg 92%
12:00 +12°C° 0.3 mm 3 mps 742 mmHg 93%
13:00 +12°C° 0.3 mm 3 mps 743 mmHg 93%
14:00 +12°C° 0.3 mm 3 mps 743 mmHg 93%
15:00 +13°C° 0.2 mm 2 mps 744 mmHg 90%
16:00 +14°C° 0.2 mm 2 mps 744 mmHg 88%
17:00 +14°C° 0.2 mm 1 mps 744 mmHg 86%
18:00 +14°C° 0.1 mm 1 mps 745 mmHg 88%
19:00 +13°C° 0.1 mm 1 mps 745 mmHg 91%
20:00 +12°C° 0.1 mm 1 mps 745 mmHg 94%
21:00 +12°C° 0 mm 1 mps 746 mmHg 95%
22:00 +12°C° 0 mm 2 mps 746 mmHg 96%
23:00 +10°C° 0 mm 2 mps 746 mmHg 97%

Tomorrow, 17 May, Monday

Time Temperature Precipitation Wind Pressure Humidity
00:00 +10°C° 0 mm 2 mps 747 mmHg 97%
01:00 +9°C° 0 mm 2 mps 747 mmHg 97%
02:00 +9°C° 0 mm 2 mps 747 mmHg 96%
03:00 +10°C° 0 mm 2 mps 747 mmHg 96%
04:00 +11°C° 0 mm 1 mps 748 mmHg 95%
05:00 +11°C° 0 mm 1 mps 748 mmHg 94%
06:00 +13°C° 0 mm 1 mps 748 mmHg 89%
07:00 +14°C° 0 mm 1 mps 748 mmHg 84%
08:00 +16°C° 0 mm 2 mps 749 mmHg 79%
09:00 +17°C° 0 mm 2 mps 749 mmHg 73%
10:00 +18°C° 0 mm 2 mps 749 mmHg 66%
11:00 +19°C° 0 mm 2 mps 749 mmHg 60%
12:00 +19°C° 0 mm 2 mps 749 mmHg 59%
13:00 +19°C° 0 mm 2 mps 749 mmHg 58%
14:00 +19°C° 0 mm 2 mps 749 mmHg 57%
15:00 +19°C° 0 mm 2 mps 749 mmHg 62%
16:00 +18°C° 0 mm 2 mps 748 mmHg 66%
17:00 +17°C° 0 mm 2 mps 748 mmHg 70%
18:00 +16°C° 0 mm 2 mps 748 mmHg 75%
19:00 +15°C° 0 mm 2 mps 748 mmHg 79%
20:00 +14°C° 0 mm 2 mps 748 mmHg 83%
21:00 +14°C° 0 mm 2 mps 748 mmHg 84%
22:00 +14°C° 0 mm 2 mps 748 mmHg 85%
23:00 +13°C° 0 mm 3 mps 747 mmHg 86%

Day after tomorrow, 18 May, Tuesday

Time Temperature Precipitation Wind Pressure Humidity
00:00 +13°C° 0 mm 3 mps 747 mmHg 88%
01:00 +12°C° 0 mm 3 mps 747 mmHg 90%
02:00 +12°C° 0 mm 4 mps 747 mmHg 92%
03:00 +12°C° 0.6 mm 3 mps 746 mmHg 93%
04:00 +12°C° 0.6 mm 3 mps 746 mmHg 94%
05:00 +12°C° 0.6 mm 3 mps 746 mmHg 95%
06:00 +13°C° 0.1 mm 3 mps 746 mmHg 92%
07:00 +14°C° 0.1 mm 4 mps 746 mmHg 90%
08:00 +15°C° 0.1 mm 4 mps 745 mmHg 88%
09:00 +17°C° 0 mm 4 mps 745 mmHg 81%
10:00 +19°C° 0 mm 5 mps 745 mmHg 75%
11:00 +20°C° 0 mm 5 mps 744 mmHg 68%
12:00 +21°C° 0 mm 5 mps 744 mmHg 64%
13:00 +23°C° 0 mm 5 mps 744 mmHg 60%
14:00 +25°C° 0 mm 5 mps 743 mmHg 55%
15:00 +25°C° 0 mm 5 mps 743 mmHg 55%
16:00 +24°C° 0 mm 6 mps 742 mmHg 55%
17:00 +24°C° 0 mm 6 mps 742 mmHg 55%
18:00 +22°C° 0 mm 6 mps 742 mmHg 58%
19:00 +21°C° 0 mm 6 mps 742 mmHg 62%
20:00 +20°C° 0 mm 5 mps 741 mmHg 65%
21:00 +20°C° 0 mm 5 mps 741 mmHg 67%
22:00 +19°C° 0 mm 5 mps 742 mmHg 69%
23:00 +17°C° 0 mm 5 mps 742 mmHg 71%

19 May, Wednesday

Time Temperature Precipitation Wind Pressure Humidity
00:00 +16°C° 0 mm 5 mps 741 mmHg 75%
01:00 +17°C° 0 mm 4 mps 741 mmHg 78%
02:00 +15°C° 0 mm 4 mps 741 mmHg 81%
03:00 +15°C° 0 mm 4 mps 741 mmHg 81%
04:00 +15°C° 0 mm 5 mps 740 mmHg 81%
05:00 +15°C° 0 mm 5 mps 740 mmHg 82%
06:00 +16°C° 0 mm 5 mps 740 mmHg 77%
07:00 +17°C° 0 mm 5 mps 739 mmHg 73%
08:00 +20°C° 0 mm 5 mps 739 mmHg 69%
09:00 +21°C° 0 mm 6 mps 739 mmHg 63%
10:00 +22°C° 0 mm 6 mps 739 mmHg 58%
11:00 +23°C° 0 mm 6 mps 739 mmHg 52%
12:00 +22°C° 0.1 mm 6 mps 739 mmHg 55%
13:00 +22°C° 0.1 mm 6 mps 739 mmHg 58%
14:00 +21°C° 0.1 mm 5 mps 739 mmHg 61%
15:00 +21°C° 0.5 mm 5 mps 739 mmHg 65%
16:00 +20°C° 0.5 mm 5 mps 739 mmHg 70%
17:00 +19°C° 0.5 mm 5 mps 738 mmHg 75%
18:00 +17°C° 0.7 mm 5 mps 738 mmHg 80%
19:00 +16°C° 0.7 mm 5 mps 738 mmHg 85%
20:00 +15°C° 0.7 mm 5 mps 738 mmHg 90%
21:00 +14°C° 0.1 mm 4 mps 738 mmHg 91%
22:00 +14°C° 0.1 mm 4 mps 737 mmHg 93%
23:00 +13°C° 0.1 mm 3 mps 737 mmHg 94%

20 May, Thursday

Time Temperature Precipitation Wind Pressure Humidity
00:00 +12°C° 1.9 mm 4 mps 737 mmHg 93%
01:00 +12°C° 1.9 mm 4 mps 738 mmHg 93%
02:00 +12°C° 1.9 mm 4 mps 738 mmHg 92%
03:00 +11°C° 0 mm 4 mps 738 mmHg 92%
04:00 +11°C° 0 mm 4 mps 738 mmHg 91%
05:00 +10°C° 0 mm 5 mps 738 mmHg 90%
06:00 +12°C° 0.1 mm 5 mps 737 mmHg 87%
07:00 +13°C° 0.1 mm 5 mps 737 mmHg 83%
08:00 +13°C° 0.1 mm 5 mps 737 mmHg 80%
09:00 +13°C° 0.7 mm 5 mps 737 mmHg 82%
10:00 +12°C° 0.7 mm 5 mps 737 mmHg 83%
11:00 +12°C° 0.7 mm 5 mps 736 mmHg 85%
12:00 +12°C° 0.2 mm 5 mps 737 mmHg 85%
13:00 +10°C° 0.2 mm 5 mps 737 mmHg 85%
14:00 +10°C° 0.2 mm 5 mps 737 mmHg 85%
15:00 +9°C° 0.2 mm 6 mps 737 mmHg 86%
16:00 +8°C° 0.2 mm 7 mps 737 mmHg 87%
17:00 +6°C° 0.2 mm 8 mps 737 mmHg 88%
18:00 +6°C° 0.2 mm 8 mps 737 mmHg 87%
19:00 +6°C° 0.2 mm 8 mps 737 mmHg 87%
20:00 +6°C° 0.2 mm 8 mps 738 mmHg 86%
21:00 +6°C° 0.1 mm 8 mps 738 mmHg 83%
22:00 +6°C° 0.1 mm 8 mps 739 mmHg 80%
23:00 +6°C° 0.1 mm 8 mps 739 mmHg 78%

21 May, Friday

Time Temperature Precipitation Wind Pressure Humidity
00:00 +6°C° 0 mm 7 mps 739 mmHg 79%
01:00 +6°C° 0 mm 7 mps 740 mmHg 81%
02:00 +5°C° 0 mm 7 mps 740 mmHg 82%
03:00 +5°C° 0 mm 6 mps 741 mmHg 83%
04:00 +7°C° 0 mm 6 mps 741 mmHg 84%
05:00 +7°C° 0 mm 5 mps 741 mmHg 85%
06:00 +8°C° 0 mm 5 mps 741 mmHg 79%
07:00 +9°C° 0 mm 5 mps 741 mmHg 73%
08:00 +10°C° 0 mm 6 mps 742 mmHg 67%
09:00 +10°C° 0.1 mm 6 mps 742 mmHg 66%
10:00 +10°C° 0.1 mm 6 mps 742 mmHg 65%
11:00 +10°C° 0.1 mm 5 mps 742 mmHg 63%
12:00 +10°C° 0.2 mm 6 mps 742 mmHg 65%
13:00 +10°C° 0.2 mm 6 mps 743 mmHg 67%
14:00 +10°C° 0.2 mm 6 mps 743 mmHg 69%
15:00 +10°C° 0 mm 6 mps 743 mmHg 67%
16:00 +10°C° 0 mm 5 mps 743 mmHg 65%
17:00 +10°C° 0 mm 5 mps 743 mmHg 62%
18:00 +9°C° 0 mm 5 mps 743 mmHg 66%
19:00 +10°C° 0 mm 4 mps 743 mmHg 70%
20:00 +8°C° 0 mm 4 mps 744 mmHg 74%
21:00 +7°C° 0 mm 4 mps 744 mmHg 78%
22:00 +7°C° 0 mm 4 mps 744 mmHg 82%
23:00 +6°C° 0 mm 4 mps 744 mmHg 87%
Show more

We Need Your Consent

Meteoprog and our Service Providers may store and access personal data such as cookies, device identifiers or other similar technologies on your device and process such data to personalise content and ads, as well as provide social media features and to analyse the traffic.

  • Store and/or access information on your device

    Cookies, device identifiers or other information can be stored or accessed on your device for the purposes indicated above.

  • Personalised ads and content, ad and content measurement, audience insights, and products development

    Ads and content can be personalised based on a profile. More data can be added to better personalise ads and content. Ad and content performance can be measured. Insights about the audience who saw the ads and content can be derived. Such data can be used to develop or improve user’s experience, systems and software.

By clicking ‘I Agree’ you will allow the use of indicated cookies, device identifiers, web beacons or other similar technologies. Your settings can be changed in the browser on your device.

For certain purposes, legitimate interests may be relied on, rather than consent. You can read more about this in our Privacy and Cookie Policy.